Weather Roundup
Issued by NWS

Home | Current Version | Previous Version | Text Only | Print | Product List | Glossary On
Versions: 1 2 3 4 5 6 7 8 9 10 11 12 13 14 15 16 17 18 19 20 21 22 23 24 25 26 27 28 29 30 31 32 33 34 35 36 37 38 39 40 41 42 43 44 45 46 47 48 49 50
000
NZUS93 KARX 180359
HRRWXR

CURRENT HOURLY OBSERVATIONS ACROSS
MUCH OF THE UPPER MISSISSIPPI VALLEY
NATIONAL WEATHER SERVICE LA CROSSE WI
1000 PM CST WED DEC 17 2014


...SOUTHEAST MINNESOTA...


CITY           SKY/WX    TMP DP  RH WIND       PRES   REMARKS
ROCHESTER      CLOUDY    16  11  80 N8        30.26F WCI   5
ROCHESTER/MAYO CLOUDY    17  11  75 NE3       30.28F
WINONA         PTCLDY    19  14  79 CALM      30.34S
AUSTIN         MOCLDY    16  12  86 NE5       30.26F WCI   9
ALBERT LEA     CLOUDY    18  16  93 N6        30.25F WCI   9
DODGE CENTER   PTCLDY    14  12  92 N3        30.26F
PRESTON        CLOUDY    16  12  85 N5        30.26F WCI   8
OWATONNA       PTCLDY    12   9  85 NE3       30.27F
FARIBAULT      PTCLDY    14  10  85 NE3       30.30S
$$

...ELSEWHERE IN MINNESOTA...


CITY           SKY/WX    TMP DP  RH WIND       PRES   REMARKS
MINNEAPOLIS    PTCLDY    16   9  74 N3        30.33S
INTNL FALLS    PTCLDY     6   0  76 E3        30.31R
DULUTH         CLOUDY    16  10  77 CALM      30.26R
RED WING       PTCLDY    12   9  85 CALM      30.32F
REDWOOD FALLS  PTCLDY    10   7  87 NW3       30.28F
MANKATO        CLOUDY    18  10  73 N3        30.28F
WORTHINGTON    PTCLDY     9   5  85 CALM      30.26R
FAIRMONT       PTCLDY    10   9  92 N3        30.27R
$$

...SOUTHWEST WISCONSIN...


CITY           SKY/WX    TMP DP  RH WIND       PRES   REMARKS
LA CROSSE      CLOUDY    19  12  74 NW6       30.32S WCI  11
PRAIRIE DU CHI PTCLDY    19  13  80 CALM      30.28F
BOSCOBEL       MOCLDY    20  13  74 N8        30.28F WCI  10
LONE ROCK      PTCLDY    23  13  65 N7        30.29F WCI  15
PLATTEVILLE    FAIR      18  15  87 CALM      30.26S
FORT MC COY    CLOUDY    19  13  78 CALM      30.32R
VIROQUA        MOCLDY    17  13  86 N5        30.26F WCI   9
WIS DELLS      NOT AVBL
$$

...ELSEWHERE IN WISCONSIN...


CITY           SKY/WX    TMP DP  RH WIND       PRES   REMARKS
MILWAUKEE      CLEAR     22  13  68 NW8       30.25S WCI  12
MADISON        PTCLDY    18  13  80 NW5       30.26F WCI  11
GREEN BAY      CLOUDY    27  20  75 NW7       30.22R WCI  19
EAU CLAIRE     CLOUDY    18  11  74 W6        30.30R WCI  10
BLACK RVR FLS  CLOUDY    19  11  72 W7        30.30S WCI  10
MEDFORD        CLOUDY    20  17  88 N7        30.21R WCI  11
WAUSAU         CLOUDY    23  19  85 VRB5      30.20S WCI  17
WIS RAPIDS     CLOUDY    19  12  74 W9        30.27R WCI   8
MARSHFIELD     CLOUDY    20  14  77 W8        30.23S WCI  10
RICE LAKE      CLOUDY    18  13  79 NW3       30.30R
$$

...NORTHEAST IOWA...


CITY           SKY/WX    TMP DP  RH WIND       PRES   REMARKS
DECORAH        MOCLDY    16  12  86 N5        30.26F WCI   9
MASON CITY     CLOUDY    17  13  84 CALM      30.30R
CHARLES CITY   CLOUDY    19  16  86 N5        30.28R WCI  13
OELWEIN        CLEAR     18  14  86 N5        30.29R WCI  11
$$

...ELSEWHERE IN IOWA...


CITY           SKY/WX    TMP DP  RH WIND       PRES   REMARKS
DES MOINES     MOCLDY    24  16  71 E6        30.30S WCI  17
IOWA CITY      CLEAR     19  14  81 N3        30.32F
FORT DODGE     CLEAR     16  12  86 NE5       30.29F WCI   9
$$

...NORTHERN ILLINOIS...


CITY           SKY/WX    TMP DP  RH WIND       PRES   REMARKS
CHICAGO-OHARE  CLOUDY    25  16  68 NW9       30.26R WCI  15
CHICAGO-MIDWAY CLOUDY    26  17  68 W7        30.28R WCI  18
MOLINE         PTCLDY    20  14  77 CALM      30.30S
ROCKFORD       CLOUDY    23  14  68 W5        30.31R WCI  17
PEORIA         PTCLDY    24  17  74 CALM      30.31R
$$

NOTE: "FAIR" INDICATES FEW OR NO CLOUDS BELOW 12,000 FEET WITH NO
SIGNIFICANT WEATHER AND/OR OBSTRUCTIONS TO VISIBILITY. WIND
SPEEDS ARE IN MILES-PER-HOUR.



USA.gov is the U.S. government's official web portal to all federal, state and local government web resources and services.